Regional Weather Roundup
Issued by NWS

Home | Current Version | Previous Version | Graphics & Text | Print | Product List | Glossary On
Versions: 1 2 3 4 5 6 7 8 9 10 11 12 13 14 15 16 17 18 19 20 21 22 23 24 25 26 27 28 29 30 31 32 33 34 35 36 37 38 39 40 41 42 43 44 45 46 47 48 49 50
000
ASUS43 KLOT 071700
RWRIL

ILLINOIS REGIONAL WEATHER ROUNDUP
NATIONAL WEATHER SERVICE CHICAGO/ROMEOVILLE IL
1200 PM CDT TUE JUL 07 2015

NOTE: "FAIR" INDICATES FEW OR NO CLOUDS BELOW 12,000 FEET WITH NO
SIGNIFICANT WEATHER AND/OR OBSTRUCTIONS TO VISIBILITY.

* THESE STATIONS ARE NOT UNDER NWS QUALITY CONTROL. THEY ALSO MAY NOT
  REPORT WEATHER SUCH AS PRECIPITATION OR FOG.

ILZ001-002-007-009-015-016-024-071800-
NORTHWEST ILLINOIS

CITY           SKY/WX    TMP DP  RH WIND       PRES   REMARKS
MOLINE         MOSUNNY   71  57  61 N10G20    30.03S HAZE
STERLING*      PTSUNNY   72  61  68 N12       30.02S
$$

ILZ003-004-008-010-011-017-018-071800-
NORTH CENTRAL ILLINOIS

CITY           SKY/WX    TMP DP  RH WIND       PRES   REMARKS
ROCKFORD       CLOUDY    71  57  61 N16G23    30.04R
$$

ILZ005-006-012>014-019>023-071800-
NORTHEAST ILLINOIS

CITY           SKY/WX    TMP DP  RH WIND       PRES   REMARKS
CHICAGO-OHARE  PTSUNNY   67  49  52 N21G26    30.01R
CHICAGO-MIDWAY CLOUDY    67  49  52 N20G29    30.00R
AURORA         MOSUNNY   69  55  60 NE10      30.01R
LANSING*       CLOUDY    63  51  64 N15G22    30.00R
WAUKEGAN       SUNNY     64  47  53 N15G25    30.02R
DUPAGE AIRPORT MOSUNNY   68  53  58 NE14      30.00R
WHEELING       SUNNY     66  47  50 NE14G23   30.03R
NORTHERLY ISL    N/A     62  52  69 N18         N/A
$$

LMZ740>746-071800-
SOUTHERN LAKE MICHIGAN

STATION/POSITION SKY/WX   TEMP    WIND        PRES    VSBY  WAVE
                          AIR SEA DIR/SP/G                  HT/PER
                          (F)     (DEG/KT/KT) (MB)    (MI)  (FT/S)
HARRISON CRIB              58     360/ 23/ 26   N/A
BURNHAM HARBOR             61     350/ 18/ 21   N/A
CALUMET HARBOR             60     350/ 13/ 21   N/A
BURNS HARBOR               59     360/ 19/ 23 1015.6R
MICHIGAN CITY              59     340/ 23/ 26   N/A
MICHIGAN CITY 6N           59 65  360/ 19/ 25   N/A           7/ 6
ST. JOSEPH                 62 64   40/ 19/ 21   N/A           7/ 2
$$

ILZ025>027-034>036-040-047-049-050-058-095>099-071800-
WEST-CENTRAL ILLINOIS

CITY           SKY/WX    TMP DP  RH WIND       PRES   REMARKS
QUINCY         CLOUDY    66  60  81 N9        30.03R HAZE
MACOMB*          N/A     67  61  82 NE14      30.04R HAZE
$$

ILZ028>032-037-038-041>044-048-051>054-059>061-071800-
CENTRAL ILLINOIS

CITY           SKY/WX    TMP DP  RH WIND       PRES   REMARKS
DECATUR        CLOUDY    66  63  90 N16       29.97R FOG
PEORIA         CLOUDY    66  61  84 NE8       30.01R HAZE
SPRINGFIELD    CLOUDY    68  64  87 N12       29.99R
TAYLORVILLE    NOT AVBL
$$

ILZ033-039-045-046-055>057-062-063-071800-
EAST-CENTRAL ILLINOIS

CITY           SKY/WX    TMP DP  RH WIND       PRES   REMARKS
CHAMPAIGN      CLOUDY    64  61  90 N14       29.95R FOG
MATTOON        CLOUDY    76  75  97 W9        29.91R
$$

ILZ079-100>102-071800-
SOUTHWEST ILLINOIS

CITY           SKY/WX    TMP DP  RH WIND       PRES   REMARKS
ALTON          CLOUDY    70 N/A N/A NW12      29.98R
BELLEVILLE     CLOUDY    77  75  92 W8        29.95R
CAHOKIA*       CLOUDY    74  70  87 N10       29.97R
SPARTA*        CLOUDY    76  72  87 SW6       29.97R
$$

ILZ064>066-069>071-074>076-080>082-084>086-088>090-092>094-071800-
SOUTH-CENTRAL ILLINOIS

CITY           SKY/WX    TMP DP  RH WIND       PRES   REMARKS
CARBONDALE     CLOUDY    75  72  90 S6        29.97S
MARION         LGT RAIN  75  73  94 S6        29.98S
MT. VERNON     CLOUDY    79  70  73 SW12      29.96R HX  81
SALEM*         CLOUDY    79  72  79 W8        29.96R HX  82
$$

ILZ067-068-072-073-078-083-087-091-071800-
SOUTHEAST ILLINOIS

CITY           SKY/WX    TMP DP  RH WIND       PRES   REMARKS
LAWRENCEVILLE  CLOUDY    80  73  79 SW15      29.92S HX  84
HARRISBURG*    HVY RAIN  74  74 100 S7        29.99S
$$

ABBREVIATIONS USED IN REMARKS
   TC - TEMPERATURE IN CELSIUS
  WCI - WIND CHILL INDEX
   HX - HEAT INDEX
  VSB - VISIBILITY
$$




USA.gov is the U.S. government's official web portal to all federal, state and local government web resources and services.